GPS BIII-4

Last updated on Sat Aug 15 2026 00:02:49 GMT+0000 (Coordinated Universal Time)

1 46826U 20078A 26226.22506168 .00000019 00000+0 00000+0 0 9999 2 46826 53.9736 208.4255 0075403 208.2485 240.8121 2.00565053 42678
UTC large
Height (km)
Speed (km/s)
/
Latitude / Longitude
Inclination (degrees)
Orbital Period (minutes)
Azimuth
Elevation
Range (km)
Doppler Factor

Next 0 passes for location: London (51.5072 / 0.1276)

No passes found over London.
GPS BIII-4